This is the latest recevied weather packets stored in our database for station/object KD4EED. If no packets are shown the sender has not sent any weather packets the latest 10 day(s).
| Time | Temp. | Humidity | Pressure | Rain* | Wind** | Luminosity | Snow |
|---|---|---|---|---|---|---|---|
| 1777822780 | 16.11° C | 73% | 1011.6 hPa | - | - | 75 W/m² | - |
| 1777822478 | 16.11° C | 73% | 1011.7 hPa | - | - | 63 W/m² | - |
| 1777822175 | 16.11° C | 73% | 1011.8 hPa | - | - | 61 W/m² | - |
| 1777821872 | 16.11° C | 74% | 1011.7 hPa | - | - | 54 W/m² | - |
| 1777821570 | 16.11° C | 74% | 1011.5 hPa | - | - | 54 W/m² | - |
| 1777821268 | 16.11° C | 74% | 1011.4 hPa | - | - | 52 W/m² | - |
| 1777820964 | 16.11° C | 75% | 1011.5 hPa | - | - | 45 W/m² | - |
| 1777820661 | 15.56° C | 75% | 1011.3 hPa | - | - | 43 W/m² | - |
| 1777820357 | 15.56° C | 75% | 1011.5 hPa | - | - | 41 W/m² | - |
| 1777820055 | 15.56° C | 76% | 1011.3 hPa | - | - | 39 W/m² | - |
| 1777819751 | 15.56° C | 75% | 1011.3 hPa | - | - | 34 W/m² | - |
| 1777819450 | 15.56° C | 76% | 1011.2 hPa | - | - | 30 W/m² | - |
| 1777819148 | 15.56° C | 76% | 1011 hPa | - | - | 29 W/m² | - |
| 1777818844 | 15.56° C | 76% | 1010.6 hPa | - | - | 27 W/m² | - |
| 1777818540 | 15.56° C | 77% | 1010.9 hPa | - | - | 25 W/m² | - |
| 1777818237 | 15.56° C | 77% | 1010.8 hPa | - | - | 24 W/m² | - |
| 1777817933 | 15.56° C | 78% | 1010.7 hPa | - | - | 21 W/m² | - |
| 1777817631 | 15.56° C | 79% | 1011 hPa | - | - | 21 W/m² | - |
| 1777817327 | 15.56° C | 79% | 1010.6 hPa | - | - | 17 W/m² | - |
| 1777817025 | 15.56° C | 79% | 1010.5 hPa | - | - | 17 W/m² | - |
| 1777816720 | 15.56° C | 79% | 1010.7 hPa | - | - | 15 W/m² | - |
| 1777816418 | 15.56° C | 79% | 1010.4 hPa | - | - | 12 W/m² | - |
| 1777816116 | 15.56° C | 79% | 1010.5 hPa | - | - | 11 W/m² | - |
| 1777815813 | 15.56° C | 80% | 1010.4 hPa | - | - | 9 W/m² | - |
| 1777815510 | 15.56° C | 80% | 1010.6 hPa | - | - | 7 W/m² | - |
* Rain since midnight (hover to see other rain measurements)
** Current wind speed in m/s (hover to see current wind gust speed)